Time,TemperatureF,DewpointF,PressureIn,WindDirection,WindDirectionDegrees,WindSpeedMPH,WindSpeedGustMPH,Humidity,HourlyPrecipIn,Conditions,Clouds,dailyrainin,SolarRadiationWatts/m^2,SoftwareType,DateUTC
2013-05-21 00:02:00,43.0,37.0,-100.00,NNW,327,6.0,22.0,80,0.00,,,0.00,0.000000,,2013-05-21 06:02:00,
2013-05-21 00:12:00,43.0,37.0,-100.00,NNW,327,6.0,22.0,80,0.00,,,0.00,0.000000,,2013-05-21 06:12:00,
2013-05-21 00:21:00,43.0,37.0,-100.00,NNW,327,6.0,22.0,80,0.00,,,0.00,0.000000,,2013-05-21 06:21:00,
2013-05-21 00:32:00,43.0,37.0,-100.00,NNW,327,6.0,22.0,80,0.00,,,0.00,0.000000,,2013-05-21 06:32:00,
2013-05-21 00:52:00,42.0,34.0,-100.00,NNW,332,7.0,19.0,73,0.00,,,0.00,0.000000,,2013-05-21 06:52:00,
2013-05-21 01:01:00,42.0,34.0,-100.00,NNW,332,7.0,19.0,73,0.00,,,0.00,0.000000,,2013-05-21 07:01:00,
2013-05-21 01:11:00,42.0,34.0,-100.00,NNW,332,7.0,19.0,73,0.00,,,0.00,0.000000,,2013-05-21 07:11:00,
2013-05-21 01:22:00,42.0,34.0,-100.00,NNW,332,7.0,19.0,73,0.00,,,0.00,0.000000,,2013-05-21 07:22:00,
2013-05-21 01:31:00,42.0,34.0,-100.00,NNW,332,7.0,19.0,73,0.00,,,0.00,0.000000,,2013-05-21 07:31:00,
2013-05-21 03:01:00,44.0,35.0,-100.00,NW,310,8.0,23.0,71,-99.99,,,0.00,0.000000,,2013-05-21 09:01:00,
2013-05-21 03:11:00,44.0,35.0,-100.00,NW,310,8.0,23.0,71,-99.99,,,0.00,0.000000,,2013-05-21 09:11:00,
2013-05-21 03:21:00,44.0,35.0,-100.00,NW,310,8.0,23.0,71,-99.99,,,0.00,0.000000,,2013-05-21 09:21:00,
2013-05-21 03:32:00,44.0,35.0,-100.00,NW,310,8.0,23.0,71,-99.99,,,0.00,0.000000,,2013-05-21 09:32:00,
2013-05-21 03:53:00,43.0,34.0,-100.00,NW,304,6.0,23.0,71,0.00,,,0.00,0.000000,,2013-05-21 09:53:00,
2013-05-21 04:02:00,43.0,34.0,-100.00,NW,304,6.0,23.0,71,0.00,,,0.00,0.000000,,2013-05-21 10:02:00,
2013-05-21 04:12:00,43.0,34.0,-100.00,NW,304,6.0,23.0,71,0.00,,,0.00,0.000000,,2013-05-21 10:12:00,
2013-05-21 04:22:00,43.0,34.0,-100.00,NW,304,6.0,23.0,71,0.00,,,0.00,0.000000,,2013-05-21 10:22:00,
2013-05-21 04:32:00,43.0,34.0,-100.00,NW,304,6.0,23.0,71,0.00,,,0.00,0.000000,,2013-05-21 10:32:00,
2013-05-21 05:02:00,43.0,34.0,-100.00,WNW,301,7.0,19.0,69,0.00,,,0.00,0.000000,,2013-05-21 11:02:00,
2013-05-21 05:12:00,43.0,34.0,-100.00,WNW,301,7.0,19.0,69,0.00,,,0.00,0.000000,,2013-05-21 11:12:00,
2013-05-21 05:21:00,43.0,34.0,-100.00,WNW,301,7.0,19.0,69,0.00,,,0.00,0.000000,,2013-05-21 11:21:00,
2013-05-21 05:32:00,43.0,34.0,-100.00,WNW,301,7.0,19.0,69,0.00,,,0.00,0.000000,,2013-05-21 11:32:00,
2013-05-21 06:01:00,43.0,33.0,-100.00,NW,307,8.0,20.0,67,0.00,,,0.00,0.000000,,2013-05-21 12:01:00,
2013-05-21 06:11:00,43.0,33.0,-100.00,NW,307,8.0,20.0,67,0.00,,,0.00,0.000000,,2013-05-21 12:11:00,
2013-05-21 06:21:00,43.0,33.0,-100.00,NW,307,8.0,20.0,67,0.00,,,0.00,0.000000,,2013-05-21 12:21:00,
2013-05-21 06:32:00,43.0,33.0,-100.00,NW,307,8.0,20.0,67,0.00,,,0.00,0.000000,,2013-05-21 12:32:00,
2013-05-21 07:01:00,44.0,34.0,-100.00,NW,310,8.0,22.0,68,0.00,,,0.00,0.000000,,2013-05-21 13:01:00,
2013-05-21 07:12:00,44.0,34.0,-100.00,NW,310,8.0,22.0,68,0.00,,,0.00,0.000000,,2013-05-21 13:12:00,
2013-05-21 07:22:00,44.0,34.0,-100.00,NW,310,8.0,22.0,68,0.00,,,0.00,0.000000,,2013-05-21 13:22:00,
2013-05-21 07:32:00,44.0,34.0,-100.00,NW,310,8.0,22.0,68,0.00,,,0.00,0.000000,,2013-05-21 13:32:00,
2013-05-21 08:01:00,45.0,35.0,-100.00,NW,311,8.0,22.0,67,0.00,,,0.00,0.000000,,2013-05-21 14:01:00,
2013-05-21 08:11:00,45.0,35.0,-100.00,NW,311,8.0,22.0,67,0.00,,,0.00,0.000000,,2013-05-21 14:11:00,
2013-05-21 08:21:00,45.0,35.0,-100.00,NW,311,8.0,22.0,67,0.00,,,0.00,0.000000,,2013-05-21 14:21:00,
2013-05-21 08:32:00,45.0,35.0,-100.00,NW,311,8.0,22.0,67,0.00,,,0.00,0.000000,,2013-05-21 14:32:00,
2013-05-21 09:01:00,44.0,33.0,-100.00,NNW,331,5.0,25.0,65,0.00,,,0.00,0.000000,,2013-05-21 15:01:00,
2013-05-21 09:11:00,44.0,33.0,-100.00,NNW,331,5.0,25.0,65,0.00,,,0.00,0.000000,,2013-05-21 15:11:00,
2013-05-21 09:21:00,44.0,33.0,-100.00,NNW,331,5.0,25.0,65,0.00,,,0.00,0.000000,,2013-05-21 15:21:00,
2013-05-21 09:33:00,44.0,33.0,-100.00,NNW,331,5.0,25.0,65,0.00,,,0.00,0.000000,,2013-05-21 15:33:00,
2013-05-21 10:03:00,44.0,33.0,-100.00,North,1,7.0,22.0,65,0.00,,,0.00,0.000000,,2013-05-21 16:03:00,
2013-05-21 10:13:00,44.0,33.0,-100.00,North,1,7.0,22.0,65,0.00,,,0.00,0.000000,,2013-05-21 16:13:00,
2013-05-21 10:23:00,44.0,33.0,-100.00,North,1,7.0,22.0,65,0.00,,,0.00,0.000000,,2013-05-21 16:23:00,
2013-05-21 10:32:00,44.0,33.0,-100.00,North,1,7.0,22.0,65,0.00,,,0.00,0.000000,,2013-05-21 16:32:00,
2013-05-21 11:02:00,45.0,34.0,-100.00,NW,318,5.0,22.0,66,0.00,,,0.00,0.000000,,2013-05-21 17:02:00,
2013-05-21 11:12:00,45.0,34.0,-100.00,NW,318,5.0,22.0,66,0.00,,,0.00,0.000000,,2013-05-21 17:12:00,
2013-05-21 11:23:00,45.0,34.0,-100.00,NW,318,5.0,22.0,66,0.00,,,0.00,0.000000,,2013-05-21 17:23:00,
2013-05-21 11:32:00,45.0,34.0,-100.00,NW,318,5.0,22.0,66,0.00,,,0.00,0.000000,,2013-05-21 17:32:00,
2013-05-21 11:52:00,50.0,36.0,-100.00,North,8,6.0,14.0,59,0.00,,,0.00,0.000000,,2013-05-21 17:52:00,
2013-05-21 12:02:00,50.0,36.0,-100.00,North,8,6.0,14.0,59,0.00,,,0.00,0.000000,,2013-05-21 18:02:00,
2013-05-21 12:12:00,50.0,36.0,-100.00,North,8,6.0,14.0,59,0.00,,,0.00,0.000000,,2013-05-21 18:12:00,
2013-05-21 12:22:00,50.0,36.0,-100.00,North,8,6.0,14.0,59,0.00,,,0.00,0.000000,,2013-05-21 18:22:00,
2013-05-21 12:32:00,50.0,36.0,-100.00,North,8,6.0,14.0,59,0.00,,,0.00,0.000000,,2013-05-21 18:32:00,
2013-05-21 13:01:00,50.0,41.0,-100.00,ESE,105,6.0,14.0,72,0.00,,,0.00,0.000000,,2013-05-21 19:01:00,
2013-05-21 13:11:00,50.0,41.0,-100.00,ESE,105,6.0,14.0,72,0.00,,,0.00,0.000000,,2013-05-21 19:11:00,
2013-05-21 13:21:00,50.0,41.0,-100.00,ESE,105,6.0,14.0,72,0.00,,,0.00,0.000000,,2013-05-21 19:21:00,
2013-05-21 13:32:00,50.0,41.0,-100.00,ESE,105,6.0,14.0,72,0.00,,,0.00,0.000000,,2013-05-21 19:32:00,
2013-05-21 14:03:00,48.0,41.0,-100.00,SSE,159,7.0,13.0,78,0.00,,,0.00,0.000000,,2013-05-21 20:03:00,
2013-05-21 14:11:00,48.0,41.0,-100.00,SSE,159,7.0,13.0,78,0.00,,,0.00,0.000000,,2013-05-21 20:11:00,
2013-05-21 14:22:00,48.0,41.0,-100.00,SSE,159,7.0,13.0,78,0.00,,,0.00,0.000000,,2013-05-21 20:22:00,
2013-05-21 14:32:00,48.0,41.0,-100.00,SSE,159,7.0,13.0,78,0.00,,,0.00,0.000000,,2013-05-21 20:32:00,
2013-05-21 14:52:00,48.0,41.0,-100.00,SE,132,8.0,13.0,77,0.00,,,-99.99,0.000000,,2013-05-21 20:52:00,
2013-05-21 15:02:00,48.0,41.0,-100.00,SE,132,8.0,13.0,77,0.00,,,-99.99,0.000000,,2013-05-21 21:02:00,
2013-05-21 15:11:00,48.0,41.0,-100.00,SE,132,8.0,13.0,77,0.00,,,-99.99,0.000000,,2013-05-21 21:11:00,
2013-05-21 15:21:00,48.0,41.0,-100.00,SE,132,8.0,13.0,77,0.00,,,-99.99,0.000000,,2013-05-21 21:21:00,
2013-05-21 15:33:00,48.0,41.0,-100.00,SE,132,8.0,13.0,77,0.00,,,-99.99,0.000000,,2013-05-21 21:33:00,
2013-05-21 16:02:00,47.0,40.0,-100.00,SSE,151,9.0,13.0,77,0.00,,,0.00,0.000000,,2013-05-21 22:02:00,
2013-05-21 16:12:00,47.0,40.0,-100.00,SSE,151,9.0,13.0,77,0.00,,,0.00,0.000000,,2013-05-21 22:12:00,
2013-05-21 16:22:00,47.0,40.0,-100.00,SSE,151,9.0,13.0,77,0.00,,,0.00,0.000000,,2013-05-21 22:22:00,
2013-05-21 16:33:00,47.0,40.0,-100.00,SSE,151,9.0,13.0,77,0.00,,,0.00,0.000000,,2013-05-21 22:33:00,
2013-05-21 16:53:00,46.0,39.0,-100.00,SE,132,7.0,16.0,77,0.00,,,0.00,0.000000,,2013-05-21 22:53:00,
2013-05-21 17:02:00,46.0,39.0,-100.00,SE,132,7.0,16.0,77,0.00,,,0.00,0.000000,,2013-05-21 23:02:00,
2013-05-21 17:12:00,46.0,39.0,-100.00,SE,132,7.0,16.0,77,0.00,,,0.00,0.000000,,2013-05-21 23:12:00,
2013-05-21 17:22:00,46.0,39.0,-100.00,SE,132,7.0,16.0,77,0.00,,,0.00,0.000000,,2013-05-21 23:22:00,
2013-05-21 17:32:00,46.0,39.0,-100.00,SE,132,7.0,16.0,77,0.00,,,0.00,0.000000,,2013-05-21 23:32:00,
2013-05-21 18:01:00,48.0,40.0,-100.00,SSW,196,4.0,11.0,74,0.00,,,0.00,0.000000,,2013-05-22 00:01:00,
2013-05-21 18:11:00,48.0,40.0,-100.00,SSW,196,4.0,11.0,74,0.00,,,0.00,0.000000,,2013-05-22 00:11:00,
2013-05-21 18:21:00,48.0,40.0,-100.00,SSW,196,4.0,11.0,74,0.00,,,0.00,0.000000,,2013-05-22 00:21:00,
2013-05-21 18:32:00,48.0,40.0,-100.00,SSW,196,4.0,11.0,74,0.00,,,0.00,0.000000,,2013-05-22 00:32:00,
2013-05-21 18:52:00,50.0,41.0,-100.00,SW,219,4.0,11.0,71,0.00,,,0.00,0.000000,,2013-05-22 00:52:00,
2013-05-21 19:01:00,50.0,41.0,-100.00,SW,219,4.0,11.0,71,0.00,,,0.00,0.000000,,2013-05-22 01:01:00,
2013-05-21 19:11:00,50.0,41.0,-100.00,SW,219,4.0,11.0,71,0.00,,,0.00,0.000000,,2013-05-22 01:11:00,
2013-05-21 19:21:00,50.0,41.0,-100.00,SW,219,4.0,11.0,71,0.00,,,0.00,0.000000,,2013-05-22 01:21:00,
2013-05-21 19:32:00,50.0,41.0,-100.00,SW,219,4.0,11.0,71,0.00,,,0.00,0.000000,,2013-05-22 01:32:00,
2013-05-21 19:52:00,46.0,40.0,-100.00,SE,134,5.0,13.0,78,0.00,,,0.00,0.000000,,2013-05-22 01:52:00,
2013-05-21 20:01:00,46.0,40.0,-100.00,SE,134,5.0,13.0,78,0.00,,,0.00,0.000000,,2013-05-22 02:01:00,
2013-05-21 20:11:00,46.0,40.0,-100.00,SE,134,5.0,13.0,78,0.00,,,0.00,0.000000,,2013-05-22 02:11:00,
2013-05-21 20:21:00,46.0,40.0,-100.00,SE,134,5.0,13.0,78,0.00,,,0.00,0.000000,,2013-05-22 02:21:00,
2013-05-21 20:32:00,46.0,40.0,-100.00,SE,134,5.0,13.0,78,0.00,,,0.00,0.000000,,2013-05-22 02:32:00,
2013-05-21 21:01:00,46.0,40.0,-100.00,SE,138,2.0,9.0,80,0.00,,,0.00,0.000000,,2013-05-22 03:01:00,
2013-05-21 21:11:00,46.0,40.0,-100.00,SE,138,2.0,9.0,80,0.00,,,0.00,0.000000,,2013-05-22 03:11:00,
2013-05-21 21:21:00,46.0,40.0,-100.00,SE,138,2.0,9.0,80,0.00,,,0.00,0.000000,,2013-05-22 03:21:00,
2013-05-21 21:33:00,46.0,40.0,-100.00,SE,138,2.0,9.0,80,0.00,,,0.00,0.000000,,2013-05-22 03:33:00,
2013-05-21 21:53:00,43.0,38.0,-100.00,SSE,147,2.0,4.0,84,0.00,,,0.00,0.000000,,2013-05-22 03:53:00,
2013-05-21 22:03:00,43.0,38.0,-100.00,SSE,147,2.0,4.0,84,0.00,,,0.00,0.000000,,2013-05-22 04:03:00,
2013-05-21 22:13:00,43.0,38.0,-100.00,SSE,147,2.0,4.0,84,0.00,,,0.00,0.000000,,2013-05-22 04:13:00,
2013-05-21 22:23:00,43.0,38.0,-100.00,SSE,147,2.0,4.0,84,0.00,,,0.00,0.000000,,2013-05-22 04:23:00,
2013-05-21 22:33:00,43.0,38.0,-100.00,SSE,147,2.0,4.0,84,0.00,,,0.00,0.000000,,2013-05-22 04:33:00,
2013-05-21 23:02:00,43.0,40.0,-100.00,SE,135,3.0,6.0,89,0.00,,,0.00,0.000000,,2013-05-22 05:02:00,
2013-05-21 23:12:00,43.0,40.0,-100.00,SE,135,3.0,6.0,89,0.00,,,0.00,0.000000,,2013-05-22 05:12:00,
2013-05-21 23:21:00,43.0,40.0,-100.00,SE,135,3.0,6.0,89,0.00,,,0.00,0.000000,,2013-05-22 05:21:00,
2013-05-21 23:32:00,43.0,40.0,-100.00,SE,135,3.0,6.0,89,0.00,,,0.00,0.000000,,2013-05-22 05:32:00,
2013-05-21 23:52:00,42.0,40.0,-100.00,SW,222,2.0,7.0,92,0.00,,,0.00,0.000000,,2013-05-22 05:52:00,